N8YZF Weather Reports


Display with metric or nautical units.
time (UTC)temp
F
wind
direction
speed
MPH
gust
MPH
rain 1hr
in
rain 24hr
in
rain mn
in
humidity
%
barometer
mb
20260903050147 69 265 0.0 0.0 0.00 0.09 0.00 95 1010.0
20260903045647 69 265 0.0 0.0 0.00 0.09 0.00 95 1010.0
20260903045155 69 265 0.0 0.0 0.00 0.09 0.00 95 1010.0
20260903044634 69 265 0.0 0.0 0.00 0.09 0.00 95 1010.0
20260903044119 69 265 0.0 0.0 0.00 0.09 0.00 95 1010.0
20260903043610 70 265 0.0 0.0 0.00 0.09 0.00 95 1010.0
20260903043055 70 265 0.0 0.0 0.00 0.09 0.00 95 1010.0
20260903042555 70 265 0.0 0.0 0.00 0.09 0.00 95 1010.1
20260903042048 70 265 0.0 0.0 0.00 0.09 0.00 95 1010.1
20260903041543 70 265 0.0 0.0 0.00 0.09 0.00 95 1010.1
20260903041347 70 265 0.0 0.0 0.00 0.09 0.00 95 1010.1
20260903040528 70 265 0.0 0.0 0.00 0.09 0.00 95 1010.1
20260903040009 70 265 0.0 0.0 0.00 0.09 0.00 95 1010.1
20260903035752 70 265 0.0 0.0 0.00 0.09 0.09 95 1010.1
20260903034944 70 265 0.0 0.0 0.00 0.09 0.09 95 1010.1
20260903034443 70 265 0.0 0.0 0.00 0.09 0.09 95 1010.1
20260903033941 70 265 0.0 0.0 0.00 0.09 0.09 94 1010.1
20260903033730 70 265 0.0 0.0 0.00 0.09 0.09 94 1010.1
20260903033021 71 265 0.0 0.0 0.00 0.09 0.09 94 1010.1
20260903033001 71 265 0.0 0.0 0.00 0.09 0.09 94 1010.1
20260903031900 71 265 0.0 0.0 0.00 0.09 0.09 94 1010.1
20260903031650 71 265 0.0 0.0 0.00 0.09 0.09 94 1010.1
20260903030852 71 265 0.0 0.0 0.00 0.09 0.09 94 1010.1
20260903030400 71 265 0.0 0.0 0.00 0.09 0.09 94 1010.1
20260903025845 71 265 0.0 0.0 0.00 0.09 0.09 94 1010.3
20260903025317 71 265 0.0 0.0 0.00 0.09 0.09 94 1010.3
20260903024807 72 265 0.0 0.0 0.00 0.09 0.09 94 1010.3
20260903024713 72 265 0.0 0.0 0.00 0.09 0.09 93 1010.3
20260903024706 72 265 0.0 0.0 0.00 0.09 0.09 93 1010.3
20260903023244 72 265 0.0 0.0 0.00 0.09 0.09 93 1010.3
20260903022739 72 265 0.0 0.0 0.00 0.09 0.09 93 1010.1
20260903022238 72 265 0.0 0.0 0.00 0.09 0.09 93 1010.1
20260903021737 73 265 0.0 0.0 0.00 0.09 0.09 93 1010.3
20260903021531 73 265 0.0 0.0 0.00 0.09 0.09 93 1010.1
20260903021019 73 265 0.0 0.0 0.00 0.09 0.09 93 1010.1
20260903020224 73 265 0.0 0.0 0.00 0.09 0.09 92 1010.1
20260903015706 73 265 0.0 0.0 0.00 0.09 0.09 92 1009.9
20260903015206 74 265 0.0 0.0 0.00 0.09 0.09 92 1009.9
20260903014656 74 265 0.0 0.0 0.00 0.09 0.09 92 1009.9
20260903014149 74 265 0.0 0.0 0.00 0.09 0.09 92 1010.0
20260903013642 74 265 0.0 0.0 0.00 0.09 0.09 92 1010.0
20260903013123 74 265 0.0 1.0 0.00 0.09 0.09 92 1010.0
20260903012615 75 265 0.0 1.0 0.00 0.09 0.09 91 1009.8
20260903012419 75 265 0.0 0.0 0.00 0.09 0.09 91 1009.8
20260903011609 75 265 0.0 0.0 0.00 0.09 0.09 91 1009.8
20260903011109 75 265 0.0 0.0 0.00 0.09 0.09 90 1009.7
20260903010554 76 265 0.0 0.0 0.00 0.09 0.09 90 1009.7
20260903010104 76 265 0.0 0.0 0.00 0.09 0.09 89 1009.7
20260903005543 76 265 0.0 0.0 0.00 0.09 0.09 89 1009.5
20260903005041 77 265 0.0 0.0 0.00 0.09 0.09 88 1009.6
20260903004831 77 265 0.0 0.0 0.00 0.09 0.09 88 1009.5
20260903004323 78 265 0.0 0.0 0.00 0.09 0.09 87 1009.5
20260903003510 78 265 0.0 0.0 0.00 0.09 0.09 86 1009.6
20260903003002 78 265 0.0 0.0 0.00 0.09 0.09 86 1009.6
20260903002500 79 265 0.0 0.0 0.00 0.09 0.09 86 1009.6
20260903002000 79 265 0.0 2.0 0.00 0.09 0.09 85 1009.6
20260903001445 79 265 0.0 2.0 0.00 0.09 0.09 85 1009.6
20260903000940 80 265 0.0 1.0 0.00 0.09 0.09 84 1009.6
20260903000437 80 265 0.0 1.0 0.00 0.09 0.09 84 1009.7
20260902235937 80 284 0.0 2.0 0.00 0.09 0.09 84 1009.7
20260902235414 80 284 1.0 5.0 0.00 0.09 0.09 84 1009.7
20260902234910 80 284 0.0 5.0 0.00 0.09 0.09 83 1009.7
20260902234405 80 267 0.0 2.0 0.00 0.09 0.09 84 1009.8
20260902233859 80 267 0.0 0.0 0.00 0.09 0.09 84 1009.8
20260902233359 80 287 0.0 0.0 0.00 0.09 0.09 84 1009.8
20260902232854 80 287 0.0 2.0 0.00 0.09 0.09 84 1009.7
20260902232357 80 287 0.0 4.0 0.00 0.09 0.09 84 1009.7
20260902231847 80 287 1.0 7.0 0.00 0.09 0.09 83 1009.7
20260902231347 81 287 1.0 7.0 0.00 0.09 0.09 83 1009.8
20260902230846 81 258 1.0 4.0 0.00 0.09 0.09 82 1009.8
20260902230346 81 275 2.0 6.0 0.00 0.09 0.09 82 1009.9
20260902225843 81 267 2.0 6.0 0.00 0.09 0.09 81 1009.9
20260902225523 82 306 1.0 6.0 0.00 0.09 0.09 80 1009.9
20260902225444 82 282 2.0 6.0 0.00 0.09 0.09 80 1009.9
20260902224651 83 288 1.0 6.0 0.00 0.09 0.09 78 1010.1
20260902223830 83 243 1.0 5.0 0.00 0.09 0.09 78 1010.1
20260902223636 83 289 2.0 8.0 0.00 0.09 0.09 77 1010.1
20260902222813 83 280 3.0 8.0 0.00 0.09 0.09 76 1009.8
20260902222310 83 271 3.0 8.0 0.00 0.09 0.09 76 1009.8
20260902221808 83 294 3.0 8.0 0.00 0.09 0.09 75 1009.8
20260902221312 83 269 3.0 8.0 0.00 0.09 0.09 75 1009.7
20260902220808 83 248 3.0 7.0 0.00 0.09 0.09 75 1009.7
20260902220310 83 303 2.0 7.0 0.00 0.09 0.09 75 1009.7
20260902220123 83 271 2.0 5.0 0.00 0.09 0.09 76 1009.8
20260902215308 83 278 3.0 7.0 0.00 0.09 0.09 75 1009.8
20260902214804 83 258 2.0 7.0 0.00 0.09 0.09 75 1009.8
20260902214308 83 263 2.0 4.0 0.00 0.09 0.09 75 1009.6
20260902213805 83 286 2.0 4.0 0.00 0.09 0.09 75 1009.6
20260902213305 83 300 1.0 5.0 0.00 0.09 0.09 75 1009.6
20260902212939 83 267 1.0 4.0 0.00 0.09 0.09 79 1009.7
20260902212904 83 281 1.0 5.0 0.00 0.09 0.09 77 1009.7
20260902211745 83 287 2.0 6.0 0.00 0.09 0.09 77 1009.6
20260902211244 82 187 2.0 6.0 0.00 0.09 0.09 78 1009.7
20260902210740 82 221 1.0 3.0 0.00 0.09 0.09 80 1009.7
20260902210558 82 209 1.0 3.0 0.00 0.09 0.09 81 1009.7
20260902210054 82 216 1.0 3.0 0.00 0.09 0.09 83 1009.7
20260902205600 81 200 1.0 3.0 0.00 0.09 0.09 83 1009.7
20260902204732 81 194 1.0 3.0 0.00 0.09 0.09 82 1009.6
20260902204226 81 194 1.0 3.0 0.00 0.09 0.09 84 1009.8
20260902204025 80 221 1.0 3.0 0.00 0.09 0.09 84 1009.8
20260902203531 80 227 1.0 3.0 0.00 0.09 0.09 86 1009.8
20260902202714 80 227 1.0 3.0 0.00 0.09 0.09 86 1010.0
20260902202207 79 228 1.0 2.0 0.00 0.09 0.09 87 1009.9
20260902201706 79 228 0.0 2.0 0.00 0.09 0.09 89 1009.9
20260902201307 79 228 0.0 2.0 0.00 0.09 0.09 89 1010.0
20260902200509 79 228 0.0 0.0 0.02 0.09 0.09 90 1010.0
20260902195704 79 228 0.0 0.0 0.03 0.09 0.09 90 1009.9
20260902195203 79 228 0.0 1.0 0.03 0.09 0.09 89 1009.9
20260902195010 79 228 0.0 1.0 0.03 0.09 0.09 89 1009.9
20260902194204 78 228 0.0 0.0 0.03 0.09 0.09 90 1010.3
20260902193704 78 228 1.0 2.0 0.03 0.09 0.09 90 1010.3
20260902193201 78 228 1.0 2.0 0.04 0.09 0.09 89 1010.1
20260902192703 78 228 0.0 2.0 0.04 0.09 0.09 88 1010.4
20260902192204 78 228 0.0 2.0 0.04 0.09 0.09 91 1010.4
20260902191650 78 228 0.0 2.0 0.04 0.09 0.09 91 1010.4
20260902191152 77 228 0.0 1.0 0.04 0.09 0.09 92 1010.1
20260902190644 77 228 1.0 4.0 0.04 0.09 0.09 91 1010.1
20260902190144 77 205 2.0 4.0 0.02 0.07 0.07 89 1010.1
20260902185639 77 175 2.0 4.0 0.01 0.06 0.06 90 1010.3
20260902185228 77 217 1.0 4.0 0.01 0.06 0.06 90 1010.3
20260902184123 77 154 0.0 1.0 0.05 0.06 0.06 90 1010.4
20260902183924 77 154 0.0 1.0 0.05 0.06 0.06 90 1010.4
20260902183417 77 154 0.0 1.0 0.04 0.05 0.05 89 1010.4
20260902182609 77 153 0.0 2.0 0.04 0.05 0.05 90 1010.3
20260902182107 77 153 0.0 2.0 0.04 0.05 0.05 90 1010.3
20260902181914 77 179 0.0 1.0 0.04 0.05 0.05 89 1010.3
20260902181416 77 179 0.0 1.0 0.04 0.05 0.05 88 1010.4
20260902180604 77 179 1.0 2.0 0.04 0.05 0.05 86 1010.5
20260902180101 78 179 1.0 2.0 0.04 0.05 0.05 84 1010.5
20260902175602 78 205 1.0 2.0 0.04 0.05 0.05 80 1011.4
20260902175102 80 355 2.0 6.0 0.04 0.05 0.05 77 1011.5
20260902174556 82 13 4.0 9.0 0.01 0.02 0.03 73 1011.6
20260902174416 83 316 4.0 9.0 0.00 0.01 0.01 66 1010.9
20260902173549 84 263 3.0 9.0 0.00 0.01 0.01 65 1010.9
20260902173047 84 211 3.0 7.0 0.00 0.01 0.01 65 1011.0
20260902172850 83 190 2.0 7.0 0.00 0.01 0.01 65 1010.6
20260902172044 83 205 2.0 5.0 0.00 0.01 0.01 65 1010.6
20260902171904 83 207 2.0 6.0 0.00 0.01 0.01 66 1010.6
20260902171046 83 209 2.0 6.0 0.00 0.01 0.01 65 1010.8
20260902170900 83 191 2.0 5.0 0.00 0.01 0.01 65 1010.8
20260902170044 83 185 2.0 4.0 0.00 0.01 0.01 65 1010.8
20260902165543 83 192 3.0 6.0 0.00 0.01 0.01 65 1010.9
20260902165043 83 161 3.0 6.0 0.00 0.01 0.01 65 1010.9
20260902164527 83 163 2.0 5.0 0.00 0.01 0.01 65 1010.9
20260902164023 83 107 2.0 5.0 0.00 0.01 0.01 64 1011.0
20260902163522 83 183 3.0 6.0 0.00 0.01 0.01 65 1011.0
20260902163335 83 209 2.0 5.0 0.00 0.01 0.01 66 1011.0
20260902162516 82 211 1.0 5.0 0.00 0.01 0.01 68 1011.1
20260902162134 82 175 2.0 5.0 0.00 0.01 0.01 67 1011.0
20260902162109 82 188 2.0 5.0 0.00 0.01 0.01 68 1011.1
20260902161004 82 147 2.0 5.0 0.00 0.01 0.01 67 1011.0
20260902160503 82 182 2.0 5.0 0.00 0.01 0.01 67 1011.0
20260902160325 82 127 2.0 3.0 0.00 0.01 0.01 67 1011.2
20260902155505 82 193 1.0 4.0 0.00 0.01 0.01 67 1011.2
20260902155312 82 176 1.0 4.0 0.00 0.01 0.01 67 1011.2
20260902154446 81 296 1.0 2.0 0.00 0.01 0.01 66 1010.8
20260902153940 81 296 1.0 4.0 0.00 0.01 0.01 68 1010.8
20260902153439 82 211 2.0 5.0 0.00 0.01 0.01 66 1010.8
20260902152937 82 219 3.0 6.0 0.00 0.01 0.01 68 1010.7
20260902152745 82 197 2.0 6.0 0.00 0.01 0.01 68 1010.7
20260902151939 82 113 2.0 4.0 0.00 0.01 0.01 68 1010.7
20260902151428 81 80 2.0 6.0 0.00 0.01 0.01 67 1010.8
20260902150920 81 119 2.0 6.0 0.00 0.01 0.01 68 1010.8
20260902150724 81 122 1.0 4.0 0.00 0.01 0.01 68 1010.8
20260902145916 81 138 2.0 4.0 0.00 0.01 0.01 69 1010.8
20260902145415 81 163 1.0 4.0 0.00 0.01 0.01 69 1010.8
20260902144915 80 153 1.0 5.0 0.00 0.01 0.01 69 1010.7
20260902144414 80 148 1.0 5.0 0.00 0.01 0.01 69 1010.9
20260902143913 80 118 1.0 5.0 0.00 0.01 0.01 71 1010.9
20260902143413 80 94 2.0 5.0 0.00 0.01 0.01 70 1010.9
20260902142913 80 9 1.0 2.0 0.00 0.01 0.01 70 1011.1
20260902142406 80 5 1.0 3.0 0.00 0.01 0.01 74 1011.1
20260902141908 79 5 1.0 3.0 0.00 0.01 0.01 72 1011.0
20260902141410 78 29 1.0 2.0 0.00 0.01 0.01 76 1011.2
20260902140905 78 261 1.0 3.0 0.00 0.01 0.01 75 1011.1
20260902140405 78 261 1.0 3.0 0.00 0.01 0.01 76 1011.1
20260902135858 77 302 1.0 2.0 0.00 0.01 0.01 79 1011.2
20260902135719 77 207 0.0 2.0 0.00 0.01 0.01 82 1011.2
20260902134857 76 226 0.0 4.0 0.00 0.01 0.01 83 1011.1
20260902134352 75 279 1.0 4.0 0.00 0.01 0.01 84 1011.5
20260902133848 75 279 1.0 3.0 0.00 0.01 0.01 86 1011.4
20260902133345 74 286 1.0 4.0 0.00 0.01 0.01 86 1011.4
20260902132840 74 268 1.0 4.0 0.00 0.01 0.01 86 1011.9
20260902132339 74 0 0.0 2.0 0.00 0.01 0.01 88 1011.9
20260902132119 74 0 0.0 2.0 0.00 0.01 0.01 89 1011.9
20260902131321 73 261 0.0 1.0 0.00 0.01 0.01 91 1011.9
20260902130812 73 261 0.0 2.0 0.00 0.01 0.01 91 1011.8
20260902130306 73 261 0.0 2.0 0.01 0.01 0.01 92 1011.8
20260902125805 73 315 0.0 1.0 0.01 0.01 0.01 93 1011.8
20260902125612 73 315 1.0 4.0 0.01 0.01 0.01 93 1011.8
20260902125110 73 315 1.0 4.0 0.01 0.01 0.01 93 1011.8
20260902124301 73 287 1.0 4.0 0.01 0.01 0.01 94 1011.5
20260902123803 73 344 1.0 4.0 0.01 0.01 0.01 95 1011.5
20260902123243 73 327 1.0 4.0 0.01 0.01 0.01 95 1011.5
20260902122747 73 119 0.0 2.0 0.01 0.01 0.01 95 1011.0
20260902122521 73 117 0.0 0.0 0.01 0.01 0.01 95 1010.9
20260902121700 73 117 0.0 0.0 0.01 0.01 0.01 96 1010.9
20260902121153 72 117 0.0 0.0 0.01 0.01 0.01 96 1011.0
20260902120643 72 117 0.0 0.0 0.01 0.01 0.01 96 1011.0
20260902120144 72 117 0.0 0.0 0.00 0.00 0.00 96 1011.0
20260902115643 71 117 0.0 1.0 0.00 0.00 0.00 95 1010.8
20260902115132 71 117 0.0 1.0 0.00 0.00 0.00 95 1010.8
20260902114623 71 117 0.0 0.0 0.00 0.00 0.00 95 1010.7
20260902114426 71 117 0.0 0.0 0.00 0.00 0.00 95 1010.3
20260902113920 71 117 0.0 1.0 0.00 0.00 0.00 95 1010.3
20260902113105 71 117 1.0 2.0 0.00 0.00 0.00 95 1010.3
20260902112604 71 117 1.0 5.0 0.00 0.00 0.00 95 1010.4
20260902112052 71 124 0.0 5.0 0.00 0.00 0.00 95 1010.4
20260902111907 72 127 0.0 1.0 0.00 0.00 0.00 95 1010.4
20260902111042 72 127 0.0 1.0 0.00 0.00 0.00 94 1010.1
20260902110527 72 127 0.0 0.0 0.00 0.00 0.00 94 1010.1
20260902110008 72 127 0.0 2.0 0.00 0.00 0.00 94 1010.1
20260902105505 72 127 0.0 2.0 0.00 0.00 0.00 94 1010.1
20260902105003 72 155 0.0 2.0 0.00 0.00 0.00 94 1010.1
20260902104451 72 155 1.0 4.0 0.00 0.00 0.00 94 1010.3
20260902103953 72 155 1.0 4.0 0.00 0.00 0.00 94 1010.3
20260902103544 72 204 0.0 3.0 0.00 0.00 0.00 94 1010.5
20260902103521 72 203 0.0 0.0 0.00 0.00 0.00 94 1010.3
20260902102417 72 204 0.0 3.0 0.00 0.00 0.00 94 1010.5
20260902102231 72 146 0.0 0.0 0.00 0.00 0.00 94 1010.5
20260902101412 72 144 0.0 4.0 0.00 0.00 0.00 94 1010.5
20260902100907 72 144 1.0 4.0 0.00 0.00 0.00 94 1010.5
20260902100710 72 144 0.0 2.0 0.00 0.00 0.00 94 1010.5
20260902095905 72 109 0.0 0.0 0.00 0.00 0.00 93 1010.3
20260902095351 72 109 0.0 0.0 0.00 0.00 0.00 93 1010.3
20260902095155 72 109 0.0 0.0 0.00 0.00 0.00 93 1010.3
20260902094346 72 109 0.0 0.0 0.00 0.00 0.00 93 1010.8
20260902093840 72 109 0.0 0.0 0.00 0.00 0.00 93 1010.8
20260902093321 72 109 0.0 0.0 0.00 0.00 0.00 93 1010.8
20260902092819 72 96 0.0 0.0 0.00 0.00 0.00 93 1010.7
20260902092318 72 96 1.0 4.0 0.00 0.00 0.00 93 1010.7
20260902092118 72 96 1.0 4.0 0.00 0.00 0.00 93 1010.7
20260902091307 72 94 0.0 4.0 0.00 0.00 0.00 93 1010.8
20260902090805 72 103 0.0 0.0 0.00 0.00 0.00 93 1010.8
20260902090602 72 103 1.0 4.0 0.00 0.00 0.00 93 1010.8
20260902085759 72 103 1.0 4.0 0.00 0.00 0.00 93 1010.8
20260902085257 72 103 0.0 2.0 0.00 0.00 0.00 93 1010.8
20260902084756 72 132 0.0 2.0 0.00 0.00 0.00 93 1010.8
20260902084250 72 132 1.0 2.0 0.00 0.00 0.00 94 1010.4
20260902083745 72 132 1.0 4.0 0.00 0.00 0.00 94 1010.4
20260902083244 72 132 1.0 4.0 0.00 0.00 0.00 94 1010.4
20260902082747 72 159 1.0 4.0 0.00 0.00 0.00 94 1009.9
20260902082242 72 143 1.0 4.0 0.00 0.00 0.00 94 1009.9
20260902082036 72 115 0.0 1.0 0.00 0.00 0.00 95 1009.9
20260902081521 72 115 0.0 1.0 0.00 0.00 0.00 95 1009.6
20260902081022 72 115 0.0 1.0 0.00 0.00 0.00 95 1009.6
20260902080203 72 115 1.0 2.0 0.00 0.00 0.00 95 1009.6
20260902075654 72 115 1.0 2.0 0.00 0.00 0.00 95 1010.3
20260902075149 72 115 0.0 2.0 0.00 0.00 0.00 95 1010.3
20260902074644 72 115 0.0 0.0 0.00 0.00 0.00 95 1010.3
20260902074127 73 115 0.0 0.0 0.00 0.00 0.00 95 1010.4
20260902073625 73 115 0.0 0.0 0.00 0.00 0.00 95 1010.4
20260902073420 73 115 0.0 0.0 0.00 0.00 0.00 95 1010.5
20260902072610 73 115 0.0 0.0 0.00 0.00 0.00 95 1010.5
20260902072409 73 115 0.0 0.0 0.00 0.00 0.00 95 1010.5
20260902071552 73 115 0.0 0.0 0.00 0.00 0.00 95 1010.5
20260902071038 73 115 0.0 0.0 0.00 0.00 0.00 95 1010.4
20260902070531 73 115 0.0 0.0 0.00 0.00 0.00 95 1010.4
20260902070318 73 115 0.0 0.0 0.00 0.00 0.00 95 1010.4
20260902065508 73 115 0.0 0.0 0.00 0.00 0.00 95 1010.5
20260902065006 73 114 0.0 2.0 0.00 0.00 0.00 95 1010.5
20260902064503 73 114 0.0 2.0 0.00 0.00 0.00 95 1010.7
20260902063956 73 114 0.0 2.0 0.00 0.00 0.00 95 1010.7
20260902063451 73 114 0.0 1.0 0.00 0.00 0.00 95 1010.7
20260902062945 73 114 0.0 0.0 0.00 0.00 0.00 95 1010.7
20260902062437 73 114 0.0 0.0 0.00 0.00 0.00 95 1010.7
20260902061910 73 114 0.0 2.0 0.00 0.00 0.00 95 1010.7
20260902061704 73 114 0.0 2.0 0.00 0.00 0.00 95 1010.3
20260902060858 73 114 0.0 2.0 0.00 0.00 0.00 95 1010.3
20260902060708 73 114 0.0 1.0 0.00 0.00 0.00 95 1010.3
20260902055845 73 115 0.0 0.0 0.00 0.00 0.00 95 1010.3
20260902055342 74 115 0.0 0.0 0.00 0.00 0.00 95 1010.3
20260902054838 74 115 0.0 1.0 0.00 0.00 0.00 95 1010.3
20260902054329 74 115 0.0 2.0 0.00 0.00 0.00 95 1010.3
20260902053821 74 115 0.0 2.0 0.00 0.00 0.00 95 1010.3
20260902053320 74 115 0.0 1.0 0.00 0.00 0.00 95 1010.3
20260902052815 74 115 0.0 1.0 0.00 0.00 0.00 94 1010.3
20260902052308 74 115 0.0 1.0 0.00 0.00 0.00 94 1010.4
20260902051806 74 115 0.0 2.0 0.00 0.00 0.00 94 1010.4
20260902051308 74 115 1.0 2.0 0.00 0.00 0.00 94 1010.5
20260902051114 74 115 1.0 4.0 0.00 0.00 0.00 94 1010.6
20260902050256 74 114 1.0 4.0 0.00 0.00 0.00 94 1010.6